Montague, CA

5:52 PM PDT on March 24, 2017 (GMT -0700)
Siskiyou County

Weather History for KSIY - September, 2013

Change the Weather History Date:

Friday, September 20, 2013

  Actual Average Record
Temperature  
Mean Temperature 61 °F 61 °F  
Max Temperature 82 °F 80 °F 97 °F (1974)
Min Temperature 39 °F 42 °F 32 °F (1988)
Degree Days  
Heating Degree Days 4 5  
Month to date heating degree days 31 61  
Since 1 July heating degree days 31 78  
Cooling Degree Days 0 1  
Month to date cooling degree days 87 36  
Year to date cooling degree days 776 537  
Growing Degree Days 10 (Base 50)    
Moisture  
Dew Point 38 °F    
Average Humidity 55    
Maximum Humidity 89    
Minimum Humidity 16    
Precipitation  
Precipitation 0.00 in 0.03 in 0.64 in (1973)
Month to date precipitation 0.02 0.33  
Year to date precipitation 4.35 11.33  
Sea Level Pressure  
Sea Level Pressure 29.77 in    
Wind  
Wind Speed 6 mph (NNW)    
Max Wind Speed 15 mph    
Max Gust Speed 23 mph    
Visibility 9 miles    
Events Rain    
T = Trace of Precipitation, MM = Missing Value Source: NWS Daily Summary

Daily Weather History Graph

Daily Weather History Graph

Search for Another Location

Airport or City:

Trip Planner

Search our weather history database for the weather conditions in past years. The results will help you decide how hot, cold, wet, or windy it might be!

Date:

Astronomy

Sep. 20, 2013 Rise Set
Actual Time 6:55 AM PDT 7:09 PM PDT
Civil Twilight 6:27 AM PDT 7:37 PM PDT
Nautical Twilight 5:55 AM PDT 8:10 PM PDT
Astronomical Twilight 5:21 AM PDT 8:43 PM PDT
Moon 7:44 PM PDT (9/20) 8:17 AM PDT (9/20)
Length of Visible Light 13h 09m
Length of Day
12h 14m
Full, 98% of the Moon is Illuminated
Sep 20
Full
Sep 26
Last Quarter
Oct 4
New
Oct 11
First Quarter
Oct 18
Full

Hourly Weather History & Observations

Time (PDT) Temp. Windchill Dew Point Humidity Pressure Visibility Wind Dir Wind Speed Gust Speed Precip Events Conditions
12:53 AM 48.9 °F - 28.9 °F 46% 29.83 in 10.0 mi North - - N/A   Clear
1:53 AM 48.0 °F - 28.9 °F 48% 29.83 in 10.0 mi NNE 3.5 mph - N/A   Clear
2:53 AM 48.0 °F - 30.9 °F 52% 29.81 in 10.0 mi Calm Calm - N/A   Clear
3:53 AM 44.1 °F - 30.0 °F 58% 29.81 in 10.0 mi Calm Calm - N/A   Clear
4:53 AM 45.0 °F - 30.9 °F 58% 29.79 in 10.0 mi Calm Calm - N/A   Clear
5:53 AM 43.0 °F 41.3 °F 28.9 °F 58% 29.79 in 10.0 mi ENE 3.5 mph - N/A   Clear
6:53 AM 39.0 °F - 28.0 °F 65% 29.79 in 10.0 mi Calm Calm - N/A   Clear
7:53 AM 46.0 °F - 30.0 °F 54% 29.81 in 10.0 mi Calm Calm - N/A   Clear
8:53 AM 51.1 °F - 35.1 °F 54% 29.79 in 10.0 mi Calm Calm - N/A   Clear
9:53 AM 57.9 °F - 34.0 °F 41% 29.77 in 10.0 mi NNE 5.8 mph - N/A   Clear
10:53 AM 66.0 °F - 32.0 °F 28% 29.75 in 10.0 mi NE 8.1 mph - N/A   Clear
11:53 AM 73.0 °F - 34.0 °F 24% 29.73 in 10.0 mi WNW 6.9 mph - N/A   Clear
12:53 PM 79.0 °F - 34.0 °F 20% 29.69 in 10.0 mi SW 9.2 mph 16.1 mph N/A   Clear
1:33 PM 80.6 °F - 30.2 °F 16% 29.69 in 10.0 mi Variable 5.8 mph 23.0 mph N/A   Clear
1:53 PM 78.1 °F - 33.1 °F 19% 29.67 in 10.0 mi SSW 9.2 mph - N/A   Clear
2:53 PM 79.0 °F - 34.0 °F 20% 29.65 in 10.0 mi SW 11.5 mph 20.7 mph N/A   Partly Cloudy
3:53 PM 75.0 °F - 27.0 °F 17% 29.68 in 10.0 mi West 13.8 mph 23.0 mph N/A   Mostly Cloudy
4:53 PM 68.0 °F - 39.9 °F 36% 29.71 in 10.0 mi WNW 20.7 mph - N/A   Overcast
5:53 PM 63.0 °F - 46.0 °F 54% 29.74 in 10.0 mi West 9.2 mph - 0.00 in Rain Light Rain
6:53 PM 57.0 °F - 50.0 °F 77% 29.80 in 7.0 mi NNE 9.2 mph - N/A Rain Rain
7:20 PM 55.4 °F - 50.0 °F 82% 29.79 in 2.0 mi North 9.2 mph - N/A Rain Heavy Rain
7:31 PM 55.4 °F - 51.8 °F 88% 29.79 in 3.0 mi Variable 6.9 mph - N/A Rain Heavy Rain
7:53 PM 55.0 °F - 52.0 °F 89% 29.81 in 5.0 mi NNE 10.4 mph 19.6 mph N/A Rain Rain
8:53 PM 54.0 °F - 52.0 °F 93% 29.80 in 10.0 mi NNE 10.4 mph - N/A   Overcast
9:53 PM 54.0 °F - 50.0 °F 86% 29.80 in 10.0 mi NE 5.8 mph - N/A Rain Light Rain
10:53 PM 53.1 °F - 50.0 °F 89% 29.78 in 8.0 mi Variable 3.5 mph - N/A Rain Light Rain
11:07 PM 53.6 °F - 50.0 °F 88% 29.79 in 10.0 mi North - - N/A Rain Light Rain
11:53 PM 53.1 °F - 48.9 °F 86% 29.78 in 10.0 mi NW 5.8 mph - N/A   Overcast